OK1VCF-8 Weather Reports


time (UTC)temp
F
wind
direction
speed
knots
gust
knots
rain 1hr
in
rain 24hr
in
rain mn
in
humidity
%
barometer
mb
20260905024057 60 0 0.0 0.0 0.00 0.00 0.00 74 1018.1
20260905023338 60 0 0.0 0.0 0.00 0.00 0.00 74 1017.9
20260905022618 60 0 0.0 0.0 0.00 0.00 0.00 74 1017.8
20260905021900 60 0 0.0 0.0 0.00 0.00 0.00 75 1017.5
20260905021141 60 0 0.0 0.0 0.00 0.00 0.00 77 1017.4
20260905020422 59 0 0.0 0.0 0.00 0.00 0.00 76 1017.4
20260905015704 59 0 0.0 0.0 0.00 0.00 0.00 77 1017.6
20260905014946 59 0 0.0 0.0 0.00 0.00 0.00 74 1017.4
20260905013942 60 0 0.0 0.0 0.00 0.00 0.00 70 1017.5
20260905013223 62 0 0.0 0.0 0.00 0.00 0.00 66 1017.2
20260905012503 64 0 0.0 0.0 0.00 0.00 0.00 60 1016.9
20260905011741 64 0 0.0 0.0 0.00 0.00 0.00 62 1016.8
20260905011014 65 0 0.0 0.0 0.00 0.00 0.00 64 1017.0
20260905010245 65 0 0.0 0.0 0.00 0.00 0.00 64 1017.0
20260905005516 65 0 0.0 0.0 0.00 0.00 0.00 64 1017.0
20260905004750 65 0 0.0 0.0 0.00 0.00 0.00 65 1017.0
20260905004022 65 0 0.0 0.0 0.00 0.00 0.00 64 1016.9
20260905003254 65 0 0.0 0.0 0.00 0.00 0.00 64 1016.8
20260905001058 66 0 0.0 0.0 0.00 0.00 0.00 62 1016.6
20260905000329 66 0 0.0 0.0 0.00 0.00 0.00 64 1016.6
20260904235557 66 0 0.0 0.0 0.00 0.00 0.00 66 1016.5
20260904234537 66 0 0.0 0.0 0.00 0.00 0.00 66 1016.6
20260904233803 66 0 0.0 0.0 0.00 0.00 0.00 67 1016.4
20260904233034 66 0 0.0 0.0 0.00 0.00 0.00 68 1016.3
20260904232307 66 0 0.0 0.0 0.00 0.00 0.00 69 1016.4
20260904230116 65 0 0.0 0.0 0.00 0.00 0.00 72 1015.9
20260904225358 65 0 0.0 0.0 0.00 0.00 0.00 71 1015.7
20260904224641 65 0 0.0 0.0 0.00 0.00 0.00 70 1016.0
20260904223923 65 0 0.0 0.0 0.00 0.00 0.00 70 1015.4
20260904223204 65 0 0.0 0.0 0.00 0.00 0.00 70 1015.0
20260904222446 65 0 0.0 0.0 0.00 0.00 0.00 70 1014.3
20260904221727 66 0 0.0 0.0 0.00 0.00 0.00 69 1014.2
20260904221008 66 0 0.0 0.0 0.00 0.00 0.00 69 1014.1
20260904220250 66 0 0.0 0.0 0.00 0.00 0.00 69 1013.6
20260904215245 67 0 0.0 0.0 0.00 0.00 0.00 68 1013.3
20260904214527 68 0 0.0 0.0 0.00 0.00 0.00 67 1013.0
20260904213809 68 0 0.0 0.0 0.00 0.00 0.00 66 1012.8
20260904213052 69 0 0.0 0.0 0.00 0.00 0.00 66 1012.8
20260904212333 70 0 0.0 0.0 0.00 0.00 0.00 67 1012.6
20260904211615 70 0 0.0 0.0 0.00 0.00 0.00 66 1012.6
20260904210855 72 0 0.0 0.0 0.00 0.00 0.00 63 1012.4
20260904210136 73 0 0.0 0.0 0.00 0.00 0.00 63 1012.2
20260904205417 72 0 0.0 0.0 0.00 0.00 0.00 64 1012.1
20260904204658 72 0 0.0 0.0 0.00 0.00 0.00 64 1012.0
20260904203940 73 0 0.0 0.0 0.00 0.00 0.00 62 1012.0
20260904203222 74 0 0.0 0.0 0.00 0.00 0.00 61 1012.1
20260904202503 74 0 0.0 0.0 0.00 0.00 0.00 60 1012.0
20260904201744 74 0 0.0 0.0 0.00 0.00 0.00 60 1012.0
20260904201025 74 0 0.0 0.0 0.00 0.00 0.00 60 1012.1
20260904200021 75 0 0.0 0.0 0.00 0.00 0.00 58 1012.1
20260904195305 75 0 0.0 0.0 0.00 0.00 0.00 58 1012.2
20260904194542 75 0 0.0 0.0 0.00 0.00 0.00 58 1012.2
20260904193823 76 0 0.0 0.0 0.00 0.00 0.00 58 1012.4
20260904193105 76 0 0.0 0.0 0.00 0.00 0.00 56 1012.3
20260904192343 76 0 0.0 0.0 0.00 0.00 0.00 58 1012.3
20260904191623 76 0 0.0 0.0 0.00 0.00 0.00 58 1012.3
20260904190903 76 0 0.0 0.0 0.00 0.00 0.00 58 1012.2
20260904190146 76 0 0.0 0.0 0.00 0.00 0.00 58 1012.1
20260904185425 76 0 0.0 0.0 0.00 0.00 0.00 57 1012.0
20260904184708 76 0 0.0 0.0 0.00 0.00 0.00 56 1012.0
20260904183950 76 0 0.0 0.0 0.00 0.00 0.00 56 1012.0
20260904183230 77 0 0.0 0.0 0.00 0.00 0.00 56 1012.0
20260904182509 77 0 0.0 0.0 0.00 0.00 0.00 55 1012.0
20260904181748 77 0 0.0 0.0 0.00 0.00 0.00 55 1011.9
20260904180745 78 0 0.0 0.0 0.00 0.00 0.00 54 1011.9
20260904180023 78 0 0.0 0.0 0.00 0.00 0.00 53 1011.8
20260904175306 79 0 0.0 0.0 0.00 0.00 0.00 52 1011.8
20260904174544 80 0 0.0 0.0 0.00 0.00 0.00 51 1012.0
20260904173824 80 0 0.0 0.0 0.00 0.00 0.00 50 1012.1
20260904173104 82 0 0.0 0.0 0.00 0.00 0.00 48 1012.2
20260904172343 82 0 0.0 0.0 0.00 0.00 0.00 48 1012.2
20260904171623 82 0 0.0 0.0 0.00 0.00 0.00 47 1012.2
20260904170903 82 0 0.0 0.0 0.00 0.00 0.00 46 1012.2
20260904170142 82 0 0.0 0.0 0.00 0.00 0.00 47 1012.0
20260904165420 82 0 0.0 0.0 0.00 0.00 0.00 47 1012.1
20260904164700 82 0 0.0 0.0 0.00 0.00 0.00 46 1012.0
20260904163941 83 0 0.0 0.0 0.00 0.00 0.00 46 1012.0
20260904163221 84 0 0.0 0.0 0.00 0.00 0.00 44 1012.0
20260904162459 88 0 0.0 0.0 0.00 0.00 0.00 40 1011.9
20260904161453 88 0 0.0 0.0 0.00 0.00 0.00 40 1011.8
20260904160732 92 0 0.0 0.0 0.00 0.00 0.00 36 1011.8
20260904160011 92 0 0.0 0.0 0.00 0.00 0.00 37 1011.8
20260904155249 92 0 0.0 0.0 0.00 0.00 0.00 36 1011.8
20260904154529 90 0 0.0 0.0 0.00 0.00 0.00 38 1011.9
20260904153810 92 0 0.0 0.0 0.00 0.00 0.00 38 1012.0
20260904151621 88 0 0.0 0.0 0.00 0.00 0.00 41 1012.0
20260904150901 84 0 0.0 0.0 0.00 0.00 0.00 47 1012.0
20260904150141 84 0 0.0 0.0 0.00 0.00 0.00 46 1012.2
20260904145419 84 0 0.0 0.0 0.00 0.00 0.00 47 1012.3
20260904144659 84 0 0.0 0.0 0.00 0.00 0.00 47 1012.4
20260904143939 84 0 0.0 0.0 0.00 0.00 0.00 46 1012.6
20260904143220 84 0 0.0 0.0 0.00 0.00 0.00 48 1012.7
20260904142214 84 0 0.0 0.0 0.00 0.00 0.00 48 1013.0
20260904141452 84 0 0.0 0.0 0.00 0.00 0.00 47 1013.2
20260904140730 83 0 0.0 0.0 0.00 0.00 0.00 48 1013.1
20260904140011 84 0 0.0 0.0 0.00 0.00 0.00 48 1013.2
20260904135250 84 0 0.0 0.0 0.00 0.00 0.00 48 1013.5
20260904134530 84 0 0.0 0.0 0.00 0.00 0.00 48 1013.6
20260904133813 84 0 0.0 0.0 0.00 0.00 0.00 48 1013.8
20260904133054 83 0 0.0 0.0 0.00 0.00 0.00 48 1013.7
20260904132335 84 0 0.0 0.0 0.00 0.00 0.00 48 1013.9
20260904131615 83 0 0.0 0.0 0.00 0.00 0.00 47 1014.0
20260904130850 83 0 0.0 0.0 0.00 0.00 0.00 47 1014.2
20260904130122 84 0 0.0 0.0 0.00 0.00 0.00 47 1014.2
20260904125345 82 0 0.0 0.0 0.00 0.00 0.00 48 1014.3
20260904124615 82 0 0.0 0.0 0.00 0.00 0.00 48 1014.4
20260904123845 83 0 0.0 0.0 0.00 0.00 0.00 48 1014.6
20260904122827 82 0 0.0 0.0 0.00 0.00 0.00 48 1014.8
20260904122056 82 0 0.0 0.0 0.00 0.00 0.00 48 1014.9
20260904121325 82 0 0.0 0.0 0.00 0.00 0.00 51 1015.1
20260904120559 81 0 0.0 0.0 0.00 0.00 0.00 51 1015.2
20260904115827 82 0 0.0 0.0 0.00 0.00 0.00 50 1015.2
20260904115054 82 0 0.0 0.0 0.00 0.00 0.00 50 1015.8
20260904114312 82 0 0.0 0.0 0.00 0.00 0.00 50 1015.6
20260904113536 82 0 0.0 0.0 0.00 0.00 0.00 52 1015.9
20260904112808 80 0 0.0 0.0 0.00 0.00 0.00 52 1015.7
20260904112044 82 0 0.0 0.0 0.00 0.00 0.00 51 1015.8
20260904111324 80 0 0.0 0.0 0.00 0.00 0.00 53 1016.1
20260904110604 79 0 0.0 0.0 0.00 0.00 0.00 54 1016.1
20260904105844 80 0 0.0 0.0 0.00 0.00 0.00 54 1016.1
20260904105125 80 0 0.0 0.0 0.00 0.00 0.00 54 1016.2
20260904104408 80 0 0.0 0.0 0.00 0.00 0.00 54 1016.5
20260904103406 78 0 0.0 0.0 0.00 0.00 0.00 54 1016.7
20260904102648 80 0 0.0 0.0 0.00 0.00 0.00 52 1016.7
20260904101929 80 0 0.0 0.0 0.00 0.00 0.00 52 1016.8
20260904101212 82 0 0.0 0.0 0.00 0.00 0.00 50 1016.8
20260904100455 80 0 0.0 0.0 0.00 0.00 0.00 54 1016.9
20260904095736 80 0 0.0 0.0 0.00 0.00 0.00 54 1017.0
20260904095019 80 0 0.0 0.0 0.00 0.00 0.00 54 1017.0
20260904094301 80 0 0.0 0.0 0.00 0.00 0.00 55 1017.0
20260904093542 79 0 0.0 0.0 0.00 0.00 0.00 56 1017.3
20260904092823 78 0 0.0 0.0 0.00 0.00 0.00 56 1017.2
20260904092104 78 0 0.0 0.0 0.00 0.00 0.00 58 1017.3
20260904091345 76 0 0.0 0.0 0.00 0.00 0.00 59 1017.4
20260904090627 78 0 0.0 0.0 0.00 0.00 0.00 56 1017.5
20260904085905 78 0 0.0 0.0 0.00 0.00 0.00 56 1017.6
20260904085147 78 0 0.0 0.0 0.00 0.00 0.00 56 1017.7
20260904084143 76 0 0.0 0.0 0.00 0.00 0.00 56 1018.0
20260904083425 78 0 0.0 0.0 0.00 0.00 0.00 56 1018.0
20260904082707 76 0 0.0 0.0 0.00 0.00 0.00 58 1018.2
20260904081947 76 0 0.0 0.0 0.00 0.00 0.00 58 1018.0
20260904081229 75 0 0.0 0.0 0.00 0.00 0.00 61 1018.0
20260904080509 74 0 0.0 0.0 0.00 0.00 0.00 62 1018.2
20260904075749 72 0 0.0 0.0 0.00 0.00 0.00 65 1018.1
20260904075030 72 0 0.0 0.0 0.00 0.00 0.00 65 1018.2
20260904074312 74 0 0.0 0.0 0.00 0.00 0.00 63 1018.2
20260904073554 72 0 0.0 0.0 0.00 0.00 0.00 66 1017.8
20260904072835 72 0 0.0 0.0 0.00 0.00 0.00 66 1018.0
20260904072115 72 0 0.0 0.0 0.00 0.00 0.00 66 1018.0
20260904071357 71 0 0.0 0.0 0.00 0.00 0.00 68 1018.2
20260904070630 70 0 0.0 0.0 0.00 0.00 0.00 68 1018.4
20260904065904 70 0 0.0 0.0 0.00 0.00 0.00 68 1018.4
20260904064856 69 0 0.0 0.0 0.00 0.00 0.00 70 1018.6
20260904064134 68 0 0.0 0.0 0.00 0.00 0.00 71 1018.4
20260904063410 68 0 0.0 0.0 0.00 0.00 0.00 70 1018.4
20260904062646 68 0 0.0 0.0 0.00 0.00 0.00 70 1018.5
20260904061919 68 0 0.0 0.0 0.00 0.00 0.00 71 1018.4
20260904061154 68 0 0.0 0.0 0.00 0.00 0.00 72 1018.6
20260904060431 66 0 0.0 0.0 0.00 0.00 0.00 74 1018.5
20260904055707 66 0 0.0 0.0 0.00 0.00 0.00 75 1018.6
20260904054944 66 0 0.0 0.0 0.00 0.00 0.00 76 1018.6
20260904054225 66 0 0.0 0.0 0.00 0.00 0.00 76 1018.6
20260904053506 65 0 0.0 0.0 0.00 0.00 0.00 76 1018.8
20260904052748 65 0 0.0 0.0 0.00 0.00 0.00 76 1019.0
20260904052029 65 0 0.0 0.0 0.00 0.00 0.00 77 1019.0
20260904051312 64 0 0.0 0.0 0.00 0.00 0.00 78 1019.0
20260904050554 64 0 0.0 0.0 0.00 0.00 0.00 79 1019.0
20260904045551 64 0 0.0 0.0 0.00 0.00 0.00 80 1019.0
20260904044833 63 0 0.0 0.0 0.00 0.00 0.00 80 1019.0
20260904044116 62 0 0.0 0.0 0.00 0.00 0.00 82 1019.0
20260904043358 62 0 0.0 0.0 0.00 0.00 0.00 82 1019.0
20260904042639 62 0 0.0 0.0 0.00 0.00 0.00 83 1019.0
20260904041921 61 0 0.0 0.0 0.00 0.00 0.00 84 1018.9
20260904041204 61 0 0.0 0.0 0.00 0.00 0.00 85 1018.9
20260904040445 61 0 0.0 0.0 0.00 0.00 0.00 85 1018.8
20260904035727 61 0 0.0 0.0 0.00 0.00 0.00 84 1018.7
20260904032126 62 0 0.0 0.0 0.00 0.00 0.00 82 1019.0
20260904031407 63 0 0.0 0.0 0.00 0.00 0.00 82 1019.2
20260904030404 63 0 0.0 0.0 0.00 0.00 0.00 81 1019.3
20260904025645 63 0 0.0 0.0 0.00 0.00 0.00 82 1019.4
20260904024928 62 0 0.0 0.0 0.00 0.00 0.00 82 1019.4